Find Starlink 4043

NORAD ID: 52836 Int'l Des: 2022-062 Owner: SPXS Country: US Constellation: starlink operational
LEOCIRCULAR

实时位置

正在加载3D地球...

关于 Starlink 4043

正在加载描述...

即将过境

Passes for default location (London). Set your location on the main map for personalized predictions.

高度历史

Loading altitude history...

两行轨道根数

1 52836U 22062G 26125.16668980 .00029577 00000-0 10994-2 0 9991
2 52836 53.2206 138.2691 0001075 73.6248 277.8558 15.27317552 5844
Epoch: May 5, 2026 • Age: 5 hours

当前状态

高度 489.7 km
速度 7.63 km/s
星下点 53.37°N, 133.78°W
发射日期 Jun 17, 2022
运行时间 3.8 years
类型 internet

技术详情

分类 Payload
质量 297.00 kg
干质量 275.00 kg
总质量 297.00 kg
长度 0.20 m
直径 2.80 m
跨度 9.00 m
形状 Box + pan
制造商 SPXS
平台类型 Starlink
阶段状态 In Orbit
所有者/国家 SPXS/US

Most Searched